Location: T�bingen+AIT
(48.5342°N, 9.0700°E)
Time: 20:24:42
(UTC+02:00)

Cosmos 1943 Rocket - Pass Details

Date: 14 September 2017
Orbit: 813 x 843 km, 71.0° (Epoch: 19 September)

Event Time Altitude Azimuth Distance (km) Brightness Sun altitude
Rises 20:25:02 0° 334° (NNW) 3,359 6.0 -8.4°
Reaches altitude 10° 20:27:35 10° 341° (NNW) 2,427 5.1 -8.8°
Maximum altitude 20:32:54 44° 54° (NE) 1,126 2.6 -9.7°
Enters shadow 20:37:49 12° 125° (SE) 2,292 3.9 -10.5°
